Tracking 23099 objects as of 13-May-2021
HD Live streaming from Space Station
objects crossing your sky now

NINGXIA-1 4

Track NINGXIA-1 4 now!
10-day predictions


NORAD ID: 44782
Int'l Code: 2019-076D
Perigee: 885.5 km
Apogee: 904.7 km
Inclination: 45.0 °
Period: 102.7 minutes
Semi major axis: 7266 km
RCS: Unknown
Launch date: November 13, 2019
Source: People's Republic of China (PRC)
Launch site: Taiyaun Space Center, China (TSC)
aabbcc
Your satellite tracking list
Your tracking list is empty




NASA's NSSDC Master Catalog

Two Line Element Set (TLE):
1 44782U 19076D   21133.53193407 -.00000118  00000-0  79663-5 0  9997
2 44782  45.0099 211.5046 0013245 320.0957  39.8842 14.01683656 76786
Source of the keplerian elements: AFSPC